Location: Allisons_Woods
(35.8920°N, 81.8170°W)
Time: 01:26:54
(UTC-04:00)

Daily predictions for brighter satellites

Satellite Brightness Start Highest point End
(mag) Time Altitude Azimuth Time Altitude Azimuth Time Altitude Azimuth
Cosmos 2263 Rocket 3.8 04:08:41 30° NE 04:08:41 30° NE 04:11:37 10° NNE
BREEZE-M DEB (TANK) 4.4 03:55:20 10° WNW 04:21:46 88° NE 04:27:13 10° ESE
ATLAS 3B R/B 3.7 04:21:56 39° SE 04:23:14 42° ESE 04:29:56 10° NE
Atlas Centaur 2 3.4 04:33:33 37° SE 04:33:33 37° SE 04:37:08 10° ESE
CZ-3 R/B 3.9 04:33:12 40° SW 04:41:28 52° S 04:50:31 10° E
Okean O Rocket 3.4 04:48:39 10° NE 04:52:24 28° E 04:53:52 23° SE
CZ-4B R/B 4.5 04:52:10 10° NNE 04:55:05 32° ENE 04:55:05 32° ENE
Cosmos 2266 Rocket 3.9 04:55:03 10° N 05:01:30 82° W 05:03:06 54° S
DELTA 2 R/B (1) 3.7 05:03:49 64° NNW 05:04:10 66° N 05:09:43 10° E
ADEOS II 2.0 04:59:25 10° NNE 05:04:42 82° ESE 05:05:00 78° SSE
Intercosmos 25 Rocket 4.2 05:16:06 41° NNE 05:16:06 41° NNE 05:18:19 10° NNE
Cosmos 332 Rocket 3.8 05:11:44 10° NNW 05:16:33 77° ENE 05:21:19 10° SSE
MOS 1-B 4.2 05:11:14 10° N 05:17:01 77° WNW 05:18:24 53° SW
PSLV R/B 3.5 05:14:25 10° NNE 05:18:37 73° ESE 05:18:48 72° SE
Cosmos 371 Rocket 3.5 05:15:25 10° NNW 05:20:17 70° ENE 05:25:06 10° SSE
Cosmos 1544 Rocket 3.4 05:22:49 10° N 05:27:10 90° ESE 05:31:32 10° S
Cosmos 468 Rocket 4.1 05:23:33 10° NNW 05:28:54 76° ENE 05:34:11 10° SSE
Cosmos 1455 Rocket 2.8 05:30:17 10° N 05:34:37 83° W 05:38:56 10° S
Cosmos 1486 Rocket 4.4 05:30:51 13° S 05:35:33 63° ESE 05:40:43 10° NNE
CZ-4B DEB 4.2 05:32:00 10° NNE 05:37:29 82° ESE 05:42:57 10° SSW
Cosmos 1666 2.8 05:34:45 10° N 05:38:31 75° E 05:42:19 10° S
USA 238 DEB 3.6 05:36:36 32° SW 05:40:07 73° WNW 05:47:07 10° NNE
USA 238 3.6 05:36:40 31° SW 05:40:13 73° WNW 05:47:14 10° NNE
Cosmos 1844 Rocket 2.8 05:35:50 16° SSW 05:40:25 76° ESE 05:46:06 10° NNE
Cosmos 1763 Rocket 4.1 05:39:16 10° N 05:44:30 59° ENE 05:49:44 10° SSE
BREEZE-M R/B 3.8 05:48:19 39° WNW 05:49:04 47° NNW 05:56:56 10° NE
Meteor 1-4 Rocket 2.2 05:46:13 10° NNW 05:49:41 74° W 05:53:08 10° S
Cosmos 2263 Rocket 3.7 05:50:25 19° NW 05:50:25 19° NW 05:54:20 10° N
Cosmos 1536 Rocket 3.5 05:49:51 29° SSW 05:51:53 58° W 05:56:12 10° N
Meteor 1-31 Rocket 3.2 05:48:14 10° NNE 05:52:04 63° E 05:55:52 10° S
RUBIN 8/PSLV 4.5 05:47:48 10° N 05:52:13 75° WNW 05:56:04 13° SSW
ASTRO E2 3.7 05:51:41 30° SSW 05:52:45 36° S 05:56:28 10° ESE
Cosmos 1743 2.9 05:50:28 10° NNW 05:54:15 48° W 05:57:59 10° SSW
Okean-O 4.2 05:55:25 10° NNE 05:59:32 37° E 06:03:36 10° SSE
Meteor 1-23 Rocket 4.4 05:54:06 10° S 05:59:37 72° E 06:05:11 10° NNE
Meteor PRIRODA 3.5 05:56:32 10° N 06:00:14 80° WNW 06:03:57 10° SSW
Okean 2 4.5 05:59:15 10° SSE 06:03:09 47° E 06:07:06 10° NNE
PAYLOAD B 4.5 06:05:42 10° N 06:10:57 46° WNW 06:16:09 10° SW
ATLAS 5 CENTAUR R/B 3.5 06:07:19 10° NNW 06:13:11 48° NE 06:19:32 10° SE
ATLAS 3B R/B 3.4 06:09:15 19° WSW 06:13:57 40° NW 06:20:36 10° NNE
Cosmos 1025 Rocket 3.1 06:10:23 10° S 06:14:37 76° E 06:18:54 10° N
Cosmos 1745 Rocket 4.0 06:08:55 10° N 06:15:19 90° SSE 06:21:37 10° S
USA 116 3.4 06:12:24 10° SSE 06:15:36 69° ENE 06:18:42 10° N
NOSS 3-2 (C) 3.5 06:11:05 10° SSW 06:16:56 82° ESE 06:23:22 10° NNE
Cosmos 1553 Rocket 4.0 06:11:33 10° SSW 06:17:33 57° W 06:23:33 10° N
Abrixas 2.7 06:17:28 21° SSW 06:18:50 48° SE 06:21:13 10° ENE
Atlas Centaur 2 2.7 06:16:11 18° WSW 06:20:19 41° SSW 06:25:04 10° SE
Okean 1-7 Rocket 3.7 06:18:37 10° S 06:23:06 84° E 06:27:41 10° N
ATLAS CENTAUR R/B 1.1 06:21:33 10° SW 06:25:29 75° WNW 06:29:16 10° NNE
CENTAUR R/B 4.3 06:22:11 10° S 06:27:16 32° ESE 06:32:53 10° NE
Okean O Rocket 2.8 06:25:16 10° NNW 06:28:35 22° WNW 06:31:20 13° WSW
Cosmos 1844 3.9 06:25:48 10° SW 06:31:14 52° WNW 06:36:47 10° NNE
Delta 2 Rocket 4.1 06:29:53 14° W 06:34:43 89° S 06:40:32 10° E
Cosmos 1814 Rocket 4.5 06:30:37 10° NW 06:35:20 37° W 06:40:04 10° SSW
CZ-4B R/B 3.9 06:30:58 10° N 06:35:33 31° WNW 06:40:11 10° SW
Cosmos 389 Rocket 2.4 06:33:18 10° N 06:36:47 88° E 06:40:17 10° S
Tiangong 1 2.4 06:36:08 14° WSW 06:37:21 19° SW 06:39:19 10° SSE
S3M 4.4 06:32:49 10° SSW 06:38:42 42° WNW 06:44:41 10° N
Feng Yun 1-1 Rocket 4.2 06:36:47 10° N 06:42:11 73° WNW 06:47:37 10° SSW
COSMO-SKYMED 1 2.8 06:38:07 10° SSE 06:42:25 75° ENE 06:46:46 10° N
Cosmos 1503 Rocket 4.1 06:37:19 10° SSW 06:42:35 60° WNW 06:47:55 10° N
ADEOS II 3.9 06:42:11 10° NW 06:43:40 11° WNW 06:45:09 10° WNW
Meteor 2-4 Rocket 4.5 06:39:20 10° SW 06:44:11 30° WNW 06:49:12 10° NNW
Cosmos 1354 Rocket 4.1 06:39:06 10° SSW 06:44:19 58° WNW 06:49:35 10° N
USA 215 4.5 06:40:49 10° ESE 06:46:49 41° NE 06:52:50 10° NNW
Cosmos 1271 Rocket 2.9 06:43:05 10° NNW 06:47:01 57° W 06:50:57 10° S
Cosmos 1606 Rocket 3.8 06:43:36 10° N 06:47:58 76° E 06:52:19 10° S
DELTA 2 R/B (1) 3.8 06:45:10 10° WNW 06:50:39 60° SSW 06:56:07 10° SE
